#timestamp,LO_Frequency,Hit,StdDev 
1625126415.4,286046996.5,N
1625126435.3,286046998.4,N
1625126455.1,286046999.0,N
1625126475.8,286046999.1,N
1625126495.7,286046996.9,N
1625126515.5,286046998.3,N
1625126535.3,286046999.4,N
1625126555.2,286046998.8,N
1625126575.0,286046998.5,N
1625126575.9,286046998.5,N
1625126595.8,286046996.9,N
1625126615.6,286047001.2,N
1625126635.5,286046998.1,N
1625126655.3,286046998.7,N
1625126675.1,286047000.4,N
1625126695.9,286047001.0,N
1625126715.7,286047000.5,N
1625126735.5,286047000.4,N
1625126755.4,286046998.2,N
1625126775.2,286046998.7,N
1625126795.1,286047000.9,N
1625126796.0,286047000.9,N
1625126815.8,286047000.7,N
1625126835.6,286047000.4,N
1625126855.5,286047000.9,N
1625126875.3,286047000.7,N
1625126895.1,286047000.0,N
1625126915.9,286047000.9,N
1625126935.7,286047000.9,N
1625126955.6,286046999.9,N
1625126975.4,286047000.4,N
1625126995.2,286046999.9,N
1625127015.1,286047001.0,N
1625127016.0,286047001.0,N
1625127035.8,286047000.9,N
1625127055.6,286047000.7,N
1625127075.5,286047001.1,N
1625127095.3,286047001.2,N
1625127115.2,286047000.8,N
1625127135.9,286047000.5,N
1625127155.7,286047000.3,N
1625127175.6,286047000.9,N
1625127195.4,286047000.2,N
1625127215.3,286047002.6,Y
1625127235.1,286047000.2,P
1625127236.0,286047000.2,N
1625127255.8,286047002.7,P
1625127275.7,286047000.0,N
1625127295.5,286046998.2,N
1625127315.3,286047000.4,N
1625127335.2,286047000.7,N
1625127355.0,286047000.7,N
1625127355.9,286047000.7,N
1625127375.8,286046998.6,N
1625127395.6,286047001.0,N
1625127415.4,286047001.0,N
1625127435.3,286046998.8,N
1625127455.1,286046999.0,N
1625127475.8,286047000.1,N
1625127495.7,286047001.2,N
1625127515.5,286046998.1,N
1625127535.4,286046999.4,N
1625127555.2,286046999.2,N
1625127575.0,286046998.1,N
1625127575.9,286046998.1,N
1625127595.8,286046998.5,N
1625127615.6,286046999.0,N
1625127635.5,286047001.1,N
1625127655.3,286047000.8,N
1625127675.1,286047000.8,N
1625127695.9,286047000.5,N
1625127715.7,286047001.0,N
1625127735.5,286047002.7,N
1625127755.4,286047002.8,N
1625127775.2,286047000.2,N
1625127795.1,286047000.7,N
1625127796.0,286047000.7,N
1625127815.8,286047000.5,N
1625127835.6,286047001.0,N
1625127855.5,286046998.6,N
1625127875.3,286046998.8,N
1625127895.1,286046996.5,N
1625127915.9,286046999.5,N
1625127935.7,286046999.2,N
1625127955.6,286046997.0,N
1625127975.4,286046996.9,N
1625127995.2,286046996.5,N
1625128015.1,286046997.8,N
1625128016.0,286046997.8,N
1625128035.8,286046998.0,N
1625128055.7,286046997.8,N
1625128075.5,286046998.0,N
1625128095.3,286046999.2,N
1625128115.2,286046997.9,N
1625128135.9,286046997.7,N
1625128155.7,286046997.2,N
1625128175.6,286046997.8,N
1625128195.4,286046999.5,N
1625128215.3,286046997.1,N
1625128235.1,286046996.7,N
1625128236.0,286046996.7,N
1625128255.8,286046997.0,N
1625128275.7,286046997.0,N
1625128295.5,286046996.6,N
1625128315.3,286046997.1,N
1625128335.2,286046996.6,N
1625128355.0,286046996.7,N
1625128355.9,286046996.7,N
1625128375.8,286046997.3,N
1625128395.6,286046996.8,Y
1625128415.4,286047000.7,P
1625128435.3,286047000.7,N
1625128455.1,286047000.4,N
1625128475.8,286047000.8,N
1625128495.7,286047001.0,N
1625128515.5,286046998.1,N
1625128535.4,286047000.7,N
1625128555.2,286046998.9,N
1625128575.0,286047000.7,N
1625128575.9,286047000.7,N
1625128595.8,286047000.1,N
1625128615.6,286047000.0,N
1625128635.5,286046999.9,N
1625128655.3,286047000.0,N
1625128675.1,286047000.1,N
1625128695.9,286047002.5,N
1625128715.7,286047000.0,N
1625128735.5,286047001.1,N
1625128755.4,286047002.4,N
1625128775.2,286047000.2,N
1625128795.1,286047000.9,N
1625128796.0,286047000.9,N
1625128815.8,286047000.6,N
1625128835.6,286047002.3,N
1625128855.5,286047000.6,N
1625128875.3,286046999.9,N
1625128895.1,286047000.7,N
1625128915.9,286047002.7,N
1625128935.7,286047002.5,N
1625128955.6,286047002.3,N
1625128975.4,286047002.3,N
1625128995.2,286047002.7,N
1625129015.1,286047000.2,N
1625129016.0,286047000.2,N
1625129035.8,286047000.1,N
1625129055.6,286047002.2,N
1625129075.5,286047002.4,N
1625129095.3,286047002.2,N
1625129115.2,286047002.3,N
1625129135.9,286047002.3,N
1625129155.7,286047002.2,N
1625129175.6,286047002.5,N
1625129195.4,286047001.3,N
1625129215.2,286047001.9,N
1625129235.1,286047002.2,N
1625129236.0,286047002.2,N
1625129255.8,286047001.9,N
1625129275.7,286047001.9,N
1625129295.5,286047002.3,N
1625129315.3,286047002.1,N
1625129335.2,286047001.9,N
1625129355.0,286047001.6,N
1625129355.9,286047001.6,N
1625129375.7,286047004.3,Y
1625129395.6,286046999.8,P
1625129415.4,286047000.9,N
1625129435.3,286047000.5,N
1625129455.1,286047000.4,N
1625129456.0,286047000.4,N
1625129475.8,286047000.3,N
1625129495.7,286047000.7,N
1625129515.5,286047000.3,N
1625129535.3,286047000.0,N
1625129555.2,286047002.4,Y
1625129575.0,286047002.8,P
1625129575.9,286047002.8,N
1625129595.8,286047000.5,N
1625129615.6,286047000.9,N
1625129635.4,286047002.3,N
1625129655.3,286046999.9,N
1625129675.1,286047000.3,N
1625129695.8,286046999.7,N
1625129715.7,286047000.3,N
1625129735.5,286047000.7,N
1625129755.4,286047000.6,N
1625129775.2,286046999.7,N
1625129795.0,286046999.8,N
1625129795.9,286046999.8,N
1625129815.8,286047000.8,N
1625129835.6,286047000.8,N
1625129855.4,286046998.9,N
1625129875.3,286046998.2,N
1625129895.1,286046998.2,N
1625129915.9,286046998.1,N
1625129935.7,286047000.5,N
1625129955.5,286047001.2,N
1625129975.4,286047000.7,N
1625129995.2,286047000.9,N
